[[{"header":{"parameterUnit":"m.s-1","parameterCategory":2,"la1":30.2991,"la2":30.254,"lo1":-89.0895,"lo2":-89.0444,"dy":0.0017,"dx":0.0017,"nx":28,"ny":28,"refTime":"2025-05-27T03:00:00:Z","depth":"0","parameterNumber":2,"parameterNumberName":"U-component_of_CURRENTS"},"data":[0,0,0,0,0,0,0,0,0,0,0,0,0,0,0,0,0,0,0,0,0,0,0,0,0,0,0,0,0,0,0,0,0,0,0,0,0,0,0,0,0,0,0,0,0,0,0,0,0,0,0,0,0,0,0,0,0,0,0.316,0.316,0,0.3165,0.3165,0.3165,0.3157,0.3157,0.3156,0.3156,0.3164,0.3164,0.3165,0,0,0,0,0,0,0,0,0,0,0,0,0,0.3158,0.3158,0.316,0.316,0.3161,0.3165,0.3165,0.3165,0.3157,0.3157,0.3156,0.3156,0.3164,0.3164,0.3165,0,0,0,0,0,0,0,0,0,0,0,0,0,0.3159,0.3158,0.316,0.3158,0.3159,0.3165,0.3165,0.3165,0.3157,0.3157,0.3156,0.3156,0.3164,0.3164,0.3165,0.317,0,0,0.3166,0.3166,0,0,0,0,0,0,0,0,0.3159,0.3158,0.3158,0.3159,0.3159,0.3162,0.3167,0.3167,0.3157,0.3155,0.3156,0.3156,0.3165,0.3165,0.3164,0.3171,0.3171,0.3166,0.3166,0.3167,0.3167,0,0,0,0,0,0,0,0.3159,0.3158,0.316,0.3159,0.3159,0.3162,0.3162,0.3167,0.316,0.3155,0.3155,0.3159,0.3165,0.3163,0.3164,0.3171,0.3166,0.3167,0.3167,0.3167,0.3242,0.3244,0,0,0,0,0,0,0.3161,0.3158,0.316,0.316,0.316,0.3163,0.3162,0.3159,0.3159,0.316,0.3159,0.3159,0.3163,0.3163,0.3164,0.3223,0.3167,0.3167,0.3167,0.3241,0.3243,0.3245,0,0,0,0,0,0,0.3161,0.3161,0.316,0.3161,0.3162,0.3163,0.316,0.316,0.3165,0.3162,0.3162,0.3166,0.3163,0.3164,0.3188,0.3222,0.3167,0.3168,0.3239,0.3241,0.3244,0.3308,0,0,0,0,0,0,0.3161,0.3161,0.3162,0.3161,0.3162,0.3181,0.316,0.316,0.3168,0.3168,0.3169,0.3169,0.3162,0.3187,0.3188,0.3221,0.3168,0.3236,0.324,0.3243,0.3304,0.3313,0.332,0,0,0,0,0,0.3161,0.3167,0.3162,0.3163,0.3163,0.3182,0.3183,0.3182,0.3169,0.3184,0.3185,0.3169,0.3209,0.3189,0.3189,0.3224,0.3235,0.3239,0.3243,0.33,0.3311,0.332,0,0,0,0,0,0,0.317,0.3166,0.3162,0.3167,0.3181,0.3182,0.3192,0.3188,0.3198,0.3196,0.3186,0.3188,0.3231,0.3215,0.3194,0.3257,0.3221,0.3226,0.3265,0.3275,0.3283,0.3316,0.3168,0,0,0,0,0,0.3172,0.3171,0.3178,0.3183,0.3191,0.3192,0.3198,0.32,0.3207,0.3211,0.321,0.3218,0.3246,0.3249,0.327,0.3291,0.3324,0.3316,0.3324,0.3331,0.336,0.3477,0.3499,0.3258,0.3258,0.3257,0,0,0.3172,0.3175,0.3171,0.3185,0.3191,0.3209,0.3195,0.3213,0.3234,0.3211,0.3236,0.3252,0.3263,0.3302,0.3318,0.329,0.3406,0.3336,0.3342,0.3368,0.3484,0.3507,0.3529,0.326,0.326,0.3259,0,0,0.3177,0.3181,0.3182,0.3198,0.3217,0.3228,0.3237,0.3247,0.326,0.3286,0.329,0.3332,0.3338,0.3373,0.3386,0.345,0.3458,0.3445,0.35,0.3612,0.3634,0.3654,0.3681,0.3702,0.3435,0.3435,0.3435,0,0.3179,0.3181,0.319,0.3204,0.3222,0.3239,0.3258,0.3279,0.3297,0.3328,0.3303,0.3385,0.3383,0.3468,0.3486,0.3473,0.3512,0.3458,0.3626,0.3646,0.3666,0.3689,0.3712,0.3439,0.3438,0.3438,0.3437,0,0.3182,0.3193,0.3202,0.3223,0.325,0.3273,0.3308,0.3341,0.3355,0.3382,0.3469,0.3486,0.3537,0.3542,0.3528,0.366,0.3633,0.3636,0.3604,0.3694,0.3711,0.3735,0.3444,0.3442,0.3441,0.344,0,0,0.3154,0.3195,0.3196,0.3225,0.3264,0.3295,0.3344,0.3411,0.3481,0.3501,0.3595,0.3637,0.3662,0.3682,0.3687,0.3772,0.3908,0.3757,0.3762,0.3788,0.4114,0.3857,0.3857,0.3953,0.3958,0.3962,0.4054,0,0.3153,0.319,0.3208,0.3261,0.3291,0.3337,0.34,0.3468,0.3531,0.363,0.3679,0.3773,0.3711,0.3762,0.3833,0.3915,0.398,0.388,0.402,0.4023,0.379,0.388,0.3644,0.3687,0.4077,0.4081,0.4083,0,0.3135,0.3175,0.3218,0.3313,0.3333,0.3375,0.3507,0.3568,0.3706,0.376,0.3849,0.3902,0.4013,0.3967,0.4123,0.4065,0.4096,0.414,0.4145,0.3909,0.3811,0.367,0.3714,0.3619,0.4119,0.4116,0.4113,0,0.3113,0.318,0.3225,0.3249,0.3355,0.3404,0.3476,0.3609,0.37,0.3867,0.3956,0.4074,0.4144,0.4243,0.426,0.4235,0.4429,0.4403,0.4194,0.4173,0.3999,0.3952,0.3975,0.4544,0.4544,0.4544,0.4544,0,0.3097,0.3134,0.3227,0.3253,0.3354,0.3425,0.3559,0.3648,0.3811,0.3932,0.4028,0.4131,0.4232,0.4318,0.4343,0.4302,0.4483,0.4225,0.4203,0.4001,0.3956,0.3882,0.3876,0.4547,0.4546,0.4546,0.4545,0,0.3056,0.3102,0.3174,0.3295,0.3338,0.3418,0.3587,0.3698,0.3844,0.4008,0.407,0.4212,0.4275,0.4324,0.4461,0.4361,0.4247,0.434,0.4032,0.3968,0.3598,0.3603,0.346,0.3381,0.4123,0.4118,0.4113,0,0.304,0.3067,0.3193,0.3249,0.3302,0.343,0.3525,0.3691,0.3805,0.4034,0.4108,0.4216,0.4209,0.4246,0.4138,0.4088,0.4055,0.384,0.3734,0.3553,0.3549,0.3427,0.3367,0.3532,0.3523,0.3516,0.351,0,0.3037,0.3075,0.3146,0.3241,0.3336,0.3436,0.3575,0.3654,0.3846,0.3945,0.4032,0.4045,0.4007,0.3786,0.3683,0.3651,0.3602,0.3676,0.3638,0.3199,0.2933,0.2852,0.3452,0.3445,0.3451,0.3456,0.346,0.3462,0.3046,0.3085,0.3166,0.3242,0.3334,0.3388,0.3416,0.3526,0.3611,0.3667,0.3811,0.3691,0.3546,0.3307,0.3258,0.2978,0.3075,0.2857,0.2913,0.283,0.2636,0.3011,0.2871,0.2874,0.2876,0.2879,0.2881,0,0.3043,0.3083,0.3163,0.3227,0.3257,0.3323,0.3407,0.3367,0.3333,0.3367,0.334,0.3083,0.2836,0.2729,0.2442,0.2274,0.2217,0.2228,0.2099,0.2114,0.2587,0.2439,0.2015,0.2015,0.2015,0.2015,0.2016,0.2016,0.3054,0.3091,0.3105,0.3116,0.3144,0.3107,0.3095,0.3012,0.2969,0.2731,0.2536,0.2472,0.2388,0.2163,0.192,0.1873,0.1791,0.1579,0.1718,0.2135,0.2201,0.2264,0.2125,0.1642,0.1642,0.1099,0.1096,0.1093]},{"header":{"parameterUnit":"m.s-1","parameterCategory":2,"la1":30.2991,"la2":30.254,"lo1":-89.0895,"lo2":-89.0444,"dy":0.0017,"dx":0.0017,"nx":28,"ny":28,"refTime":"2025-05-27T03:00:00:Z","depth":"0","parameterNumber":3,"parameterNumberName":"V-component_of_CURRENTS"},"data":[0,0,0,0,0,0,0,0,0,0,0,0,0,0,0,0,0,0,0,0,0,0,0,0,0,0,0,0,0,0,0,0,0,0,0,0,0,0,0,0,0,0,0,0,0,0,0,0,0,0,0,0,0,0,0,0,0,0,0.0375,0.0375,0,0.0371,0.0371,0.0371,0.036,0.036,0.036,0.036,0.034,0.034,0.034,0,0,0,0,0,0,0,0,0,0,0,0,0,0.0346,0.0347,0.0375,0.0375,0.0375,0.0371,0.0371,0.0371,0.036,0.036,0.036,0.036,0.034,0.034,0.034,0,0,0,0,0,0,0,0,0,0,0,0,0,0.0351,0.0347,0.0375,0.037,0.0369,0.0371,0.0371,0.0371,0.036,0.036,0.036,0.036,0.0341,0.034,0.0339,0.0341,0,0,0.0338,0.0338,0,0,0,0,0,0,0,0,0.0351,0.0352,0.037,0.037,0.037,0.0367,0.0354,0.036,0.036,0.0363,0.036,0.036,0.0348,0.0347,0.0346,0.034,0.0339,0.0338,0.0337,0.0337,0.0337,0,0,0,0,0,0,0,0.0351,0.0352,0.0373,0.0371,0.037,0.0358,0.0359,0.0355,0.0356,0.0363,0.0362,0.0363,0.0348,0.0347,0.0346,0.0339,0.0338,0.0337,0.0337,0.0337,0.034,0.034,0,0,0,0,0,0,0.0355,0.0352,0.0373,0.0373,0.036,0.0359,0.036,0.0367,0.0357,0.0355,0.0363,0.0363,0.0348,0.0346,0.0345,0.036,0.0337,0.0337,0.0336,0.0339,0.034,0.034,0,0,0,0,0,0,0.0354,0.0357,0.0373,0.0362,0.0364,0.036,0.0368,0.0367,0.0368,0.0357,0.0355,0.0365,0.0347,0.0346,0.0347,0.0359,0.0336,0.0336,0.0339,0.034,0.034,0.0382,0,0,0,0,0,0,0.0354,0.0357,0.0362,0.0363,0.0365,0.038,0.0369,0.0367,0.0369,0.0368,0.0358,0.0356,0.0347,0.0348,0.0346,0.0358,0.0335,0.0338,0.0339,0.034,0.038,0.0384,0.0387,0,0,0,0,0,0.0353,0.0365,0.0362,0.0364,0.0372,0.0381,0.0381,0.0376,0.0369,0.0374,0.0367,0.0356,0.0351,0.0348,0.0346,0.0357,0.0338,0.0339,0.034,0.0378,0.0383,0.0387,0,0,0,0,0,0,0.0355,0.0365,0.0362,0.0376,0.0379,0.0379,0.0385,0.0379,0.0377,0.0376,0.0362,0.036,0.0365,0.0355,0.0351,0.036,0.0342,0.0343,0.0372,0.0377,0.038,0.042,0.0335,0,0,0,0,0,0.0358,0.037,0.0374,0.0385,0.039,0.0386,0.0388,0.0386,0.0385,0.0384,0.0376,0.0369,0.0368,0.0367,0.0362,0.0368,0.0388,0.0373,0.0377,0.038,0.0411,0.0475,0.0489,0.0343,0.0343,0.0343,0,0,0.036,0.0368,0.0373,0.0386,0.0389,0.0404,0.0387,0.0396,0.0407,0.0382,0.0394,0.0382,0.0372,0.0379,0.0381,0.0372,0.0421,0.0381,0.0384,0.0414,0.0478,0.0493,0.0506,0.0344,0.0344,0.0344,0,0,0.0378,0.0381,0.0399,0.0406,0.0416,0.0416,0.042,0.0423,0.0423,0.0431,0.0416,0.0421,0.0409,0.0414,0.0413,0.0435,0.0438,0.042,0.0473,0.0534,0.0548,0.056,0.056,0.0573,0.0422,0.0423,0.0423,0,0.038,0.0407,0.0404,0.0425,0.0438,0.0425,0.045,0.0449,0.0449,0.0465,0.0441,0.0461,0.0434,0.0471,0.0468,0.0447,0.0466,0.0456,0.0543,0.0555,0.0568,0.0565,0.0578,0.0425,0.0424,0.0424,0.0424,0,0.0415,0.0434,0.0448,0.0473,0.0482,0.0502,0.0504,0.0513,0.0508,0.0516,0.0548,0.0528,0.0551,0.0526,0.0499,0.0565,0.0542,0.0541,0.0538,0.0585,0.0578,0.0591,0.0428,0.0427,0.0426,0.0426,0,0,0.0427,0.0466,0.047,0.0496,0.0512,0.053,0.055,0.0581,0.0628,0.0612,0.0687,0.0649,0.0656,0.0656,0.0629,0.0663,0.0721,0.0637,0.0639,0.0648,0.0827,0.0745,0.075,0.0746,0.075,0.0753,0.0772,0,0.0458,0.0513,0.0519,0.0569,0.0601,0.0602,0.0637,0.066,0.0682,0.0749,0.0741,0.0795,0.0701,0.0733,0.0747,0.0749,0.0765,0.0714,0.0772,0.0773,0.0705,0.0767,0.0753,0.0767,0.0785,0.0787,0.0788,0,0.0492,0.0529,0.0585,0.0645,0.0661,0.0687,0.076,0.0794,0.0866,0.0892,0.0938,0.095,0.0986,0.092,0.0938,0.0915,0.0876,0.0858,0.0859,0.079,0.0717,0.0731,0.0789,0.0756,0.0808,0.0807,0.0805,0,0.0517,0.0575,0.0626,0.0643,0.0705,0.0736,0.0776,0.0842,0.0919,0.1013,0.1099,0.1118,0.118,0.1146,0.1064,0.1029,0.1093,0.1043,0.0923,0.0914,0.0919,0.0905,0.0971,0.1078,0.1078,0.1078,0.1078,0,0.0553,0.0594,0.0646,0.0677,0.0767,0.0788,0.0902,0.0943,0.1066,0.1203,0.1193,0.1316,0.1254,0.1267,0.1154,0.1074,0.1159,0.0957,0.0938,0.0923,0.091,0.0892,0.0851,0.1078,0.1078,0.1078,0.1078,0,0.0576,0.0604,0.0676,0.075,0.0782,0.0852,0.0993,0.11,0.1182,0.1374,0.1427,0.1508,0.151,0.1397,0.1358,0.1209,0.1091,0.1071,0.1017,0.0991,0.0813,0.0773,0.081,0.0794,0.0952,0.0951,0.0949,0,0.0597,0.0634,0.0733,0.0804,0.0843,0.0952,0.1057,0.1156,0.129,0.1498,0.162,0.168,0.1737,0.1598,0.1357,0.1144,0.1082,0.0986,0.091,0.0828,0.0772,0.0752,0.0736,0.0914,0.0913,0.0912,0.0911,0,0.0653,0.0683,0.0752,0.0885,0.0995,0.1127,0.1277,0.1398,0.1555,0.1721,0.1929,0.1992,0.184,0.1642,0.1318,0.1158,0.0954,0.095,0.0929,0.0806,0.0736,0.0703,0.0827,0.09,0.0901,0.0902,0.0902,0.0903,0.0706,0.077,0.0864,0.0989,0.1121,0.1287,0.1409,0.1593,0.1812,0.2057,0.2118,0.22,0.1898,0.1455,0.1254,0.0865,0.0871,0.075,0.0722,0.0719,0.068,0.0737,0.0744,0.0745,0.0745,0.0745,0.0745,0,0.0779,0.0854,0.0973,0.1123,0.1265,0.1319,0.1556,0.17,0.1955,0.2148,0.2308,0.2154,0.1818,0.1439,0.0909,0.0695,0.0639,0.0596,0.0609,0.0612,0.0733,0.0706,0.0632,0.0632,0.0632,0.0632,0.0632,0.0632,0.0826,0.0938,0.0988,0.121,0.1324,0.1518,0.1649,0.188,0.2043,0.2246,0.2251,0.2234,0.194,0.1169,0.0715,0.0608,0.0537,0.0456,0.0446,0.0553,0.0567,0.058,0.0551,0.0445,0.0444,0.0365,0.0363,0.0363]}],[{"header":{"parameterUnit":"m.s-1","parameterCategory":2,"la1":30.2991,"la2":30.254,"lo1":-89.0895,"lo2":-89.0444,"dy":0.0017,"dx":0.0017,"nx":28,"ny":28,"refTime":"2025-05-27T03:00:00:Z","depth":"2","parameterNumber":2,"parameterNumberName":"U-component_of_CURRENTS"},"data":[0,0,0,0,0,0,0,0,0,0,0,0,0,0,0,0,0,0,0,0,0,0,0,0,0,0,0,0,0,0,0,0,0,0,0,0,0,0,0,0,0,0,0,0,0,0,0,0,0,0,0,0,0,0,0,0,0,0,0.2524,0.2524,0,0.2522,0.2523,0.2523,0.2528,0.2528,0.2528,0.2528,0.2543,0.2544,0.2544,0,0,0,0,0,0,0,0,0,0,0,0,0,0.2561,0.256,0.2524,0.2524,0.2523,0.2522,0.2523,0.2523,0.2528,0.2528,0.2528,0.2527,0.2543,0.2544,0.2545,0,0,0,0,0,0,0,0,0,0,0,0,0,0.2555,0.256,0.2524,0.2522,0.2522,0.2522,0.2523,0.2523,0.2528,0.2528,0.2528,0.2527,0.2543,0.2544,0.2545,0.2559,0,0,0.2548,0.2548,0,0,0,0,0,0,0,0,0.2555,0.2554,0.2523,0.2522,0.2522,0.2521,0.2541,0.2534,0.2529,0.2531,0.2528,0.2527,0.2534,0.2536,0.2543,0.256,0.2561,0.2548,0.2548,0.2549,0.2549,0,0,0,0,0,0,0,0.2556,0.2555,0.2528,0.2522,0.2522,0.253,0.253,0.254,0.2539,0.2531,0.253,0.2522,0.2535,0.2542,0.2544,0.2561,0.2548,0.2549,0.2549,0.255,0.2634,0.2636,0,0,0,0,0,0,0.2545,0.2555,0.2528,0.2528,0.2532,0.253,0.2529,0.2526,0.2539,0.2539,0.2522,0.2522,0.2541,0.2543,0.2544,0.2638,0.2549,0.255,0.255,0.2633,0.2635,0.2636,0,0,0,0,0,0,0.2546,0.2543,0.2528,0.2537,0.2535,0.2529,0.2525,0.2526,0.2545,0.2531,0.2533,0.2542,0.2541,0.2543,0.2567,0.2635,0.255,0.2551,0.2631,0.2633,0.2635,0.2776,0,0,0,0,0,0,0.2547,0.2544,0.2545,0.2537,0.2534,0.2542,0.2525,0.2526,0.2537,0.2538,0.2548,0.2549,0.254,0.2565,0.2568,0.2635,0.2552,0.2629,0.2632,0.2635,0.2769,0.2783,0.2794,0,0,0,0,0,0.2549,0.2542,0.2545,0.2542,0.2534,0.2542,0.2543,0.254,0.2539,0.2556,0.2561,0.2549,0.2587,0.2567,0.257,0.2639,0.2627,0.2631,0.2634,0.2763,0.278,0.2794,0,0,0,0,0,0,0.2558,0.2542,0.2544,0.2534,0.2546,0.2541,0.2549,0.2552,0.2571,0.2575,0.2566,0.2567,0.2605,0.2597,0.2576,0.2668,0.2607,0.2612,0.2705,0.272,0.2733,0.2671,0.2553,0,0,0,0,0,0.256,0.2556,0.2551,0.255,0.2555,0.256,0.2564,0.2569,0.2576,0.2585,0.2589,0.26,0.2622,0.265,0.2645,0.2708,0.2701,0.2752,0.2765,0.2776,0.2725,0.2851,0.2872,0.2648,0.2648,0.2648,0,0,0.2563,0.2554,0.2552,0.2553,0.2561,0.2574,0.2564,0.258,0.2596,0.2584,0.2612,0.2629,0.2637,0.2696,0.2717,0.2706,0.2831,0.278,0.279,0.2732,0.2857,0.2879,0.2899,0.2651,0.265,0.265,0,0,0.2567,0.2564,0.2566,0.2575,0.2587,0.2594,0.2603,0.2615,0.2628,0.2661,0.2659,0.27,0.2738,0.2761,0.2779,0.2853,0.2874,0.289,0.2938,0.3065,0.3085,0.3102,0.3108,0.3125,0.2926,0.2926,0.2926,0,0.2568,0.257,0.2572,0.258,0.2587,0.2605,0.2621,0.2639,0.2659,0.2691,0.2678,0.2752,0.2755,0.2841,0.2867,0.2881,0.2933,0.2893,0.3086,0.3102,0.3118,0.312,0.3137,0.2933,0.2933,0.2932,0.2931,0,0.258,0.2583,0.2588,0.2604,0.2621,0.2637,0.2657,0.2689,0.2713,0.2746,0.2817,0.2828,0.2884,0.2916,0.2911,0.3041,0.3033,0.3075,0.3055,0.3149,0.3144,0.3159,0.2944,0.2941,0.2939,0.2937,0,0,0.2562,0.2589,0.2587,0.2604,0.2633,0.2648,0.2689,0.2744,0.28,0.2834,0.2918,0.2946,0.2985,0.2999,0.3034,0.3126,0.327,0.3163,0.3166,0.3175,0.3505,0.3308,0.3304,0.341,0.3414,0.3417,0.3454,0,0.2569,0.2578,0.26,0.2631,0.2639,0.2681,0.2735,0.2795,0.2846,0.2937,0.2983,0.3071,0.3018,0.3094,0.317,0.3261,0.3319,0.3249,0.3399,0.3398,0.3224,0.3319,0.3051,0.3047,0.3468,0.347,0.3472,0,0.2564,0.2571,0.2588,0.2654,0.267,0.2706,0.2799,0.286,0.2989,0.3044,0.313,0.3187,0.3291,0.3257,0.3399,0.339,0.3424,0.3462,0.3469,0.3228,0.3229,0.3021,0.3058,0.3496,0.3494,0.3492,0.3491,0,0.2534,0.2563,0.2576,0.2588,0.2668,0.2711,0.2784,0.29,0.2969,0.3139,0.3214,0.3341,0.3419,0.3517,0.3545,0.3542,0.3691,0.3711,0.3523,0.3507,0.3259,0.3213,0.3784,0.3784,0.3784,0.3784,0.3784,0,0.2515,0.2532,0.2563,0.2578,0.2652,0.2715,0.2829,0.2923,0.3056,0.3171,0.3284,0.3351,0.3508,0.3596,0.362,0.3591,0.3757,0.3496,0.352,0.3293,0.3252,0.3621,0.3601,0.3785,0.3785,0.3785,0.3784,0,0.248,0.2498,0.2536,0.2609,0.264,0.2707,0.2851,0.2925,0.3065,0.3209,0.3281,0.3413,0.3508,0.3579,0.3725,0.3647,0.368,0.3619,0.3264,0.3241,0.3378,0.3365,0.3417,0.3411,0.3406,0.3401,0.3397,0,0.246,0.2467,0.2545,0.2582,0.262,0.2715,0.2789,0.293,0.2991,0.3213,0.3261,0.3396,0.341,0.3471,0.3427,0.3402,0.3531,0.3117,0.3014,0.3329,0.3349,0.3345,0.334,0.2744,0.2736,0.2728,0.2723,0,0.2442,0.2474,0.2506,0.256,0.2625,0.2673,0.2771,0.2798,0.2978,0.308,0.3155,0.3192,0.3214,0.3035,0.2994,0.2956,0.3105,0.2959,0.3485,0.2854,0.2693,0.2712,0.2731,0.2659,0.2665,0.267,0.2673,0.2676,0.2436,0.2453,0.2483,0.2523,0.2595,0.2571,0.2585,0.2635,0.2691,0.2768,0.2901,0.2859,0.2856,0.2595,0.2501,0.2433,0.2636,0.2531,0.2557,0.2589,0.248,0.2317,0.2185,0.2189,0.2192,0.2194,0.2197,0,0.2399,0.2408,0.2438,0.2452,0.2445,0.2511,0.2528,0.2473,0.2461,0.2522,0.2534,0.2271,0.2096,0.211,0.1877,0.1829,0.1859,0.1764,0.1799,0.1862,0.1919,0.178,0.1297,0.1295,0.1292,0.129,0,0,0.2392,0.2357,0.2332,0.2252,0.2284,0.2192,0.2173,0.2145,0.2135,0.2007,0.1959,0.2037,0.2067,0.1682,0.1595,0.1412,0.1646,0.1354,0.2078,0.2187,0.2241,0.2357,0.2211,0,0,0,0,0]},{"header":{"parameterUnit":"m.s-1","parameterCategory":2,"la1":30.2991,"la2":30.254,"lo1":-89.0895,"lo2":-89.0444,"dy":0.0017,"dx":0.0017,"nx":28,"ny":28,"refTime":"2025-05-27T03:00:00:Z","depth":"2","parameterNumber":3,"parameterNumberName":"V-component_of_CURRENTS"},"data":[0,0,0,0,0,0,0,0,0,0,0,0,0,0,0,0,0,0,0,0,0,0,0,0,0,0,0,0,0,0,0,0,0,0,0,0,0,0,0,0,0,0,0,0,0,0,0,0,0,0,0,0,0,0,0,0,0,0,0.0187,0.0187,0,0.0185,0.0185,0.0185,0.0179,0.0179,0.0179,0.0179,0.0166,0.0166,0.0165,0,0,0,0,0,0,0,0,0,0,0,0,0,0.0165,0.0166,0.0187,0.0187,0.0187,0.0185,0.0185,0.0185,0.0179,0.0179,0.0179,0.0179,0.0166,0.0166,0.0165,0,0,0,0,0,0,0,0,0,0,0,0,0,0.0171,0.0166,0.0187,0.0184,0.0183,0.0185,0.0185,0.0185,0.0179,0.0179,0.0179,0.0179,0.0166,0.0166,0.0165,0.0168,0,0,0.0164,0.0164,0,0,0,0,0,0,0,0,0.017,0.0171,0.0184,0.0184,0.0183,0.0182,0.0172,0.0178,0.0179,0.0181,0.0179,0.0179,0.017,0.0169,0.017,0.0167,0.0167,0.0164,0.0164,0.0164,0.0164,0,0,0,0,0,0,0,0.017,0.0171,0.0186,0.0184,0.0184,0.0175,0.0176,0.0173,0.0177,0.0181,0.0181,0.018,0.017,0.017,0.017,0.0166,0.0164,0.0164,0.0164,0.0164,0.0165,0.0166,0,0,0,0,0,0,0.0171,0.0171,0.0186,0.0186,0.0176,0.0176,0.0176,0.0183,0.0177,0.0176,0.018,0.018,0.0171,0.017,0.0169,0.0185,0.0164,0.0164,0.0164,0.0165,0.0165,0.0166,0,0,0,0,0,0,0.0171,0.0173,0.0186,0.0178,0.0179,0.0176,0.0183,0.0183,0.0185,0.0176,0.0175,0.0183,0.0171,0.017,0.0173,0.0184,0.0164,0.0163,0.0165,0.0165,0.0166,0.0208,0,0,0,0,0,0,0.017,0.0173,0.0176,0.0178,0.0179,0.0193,0.0184,0.0183,0.0185,0.0184,0.0179,0.0177,0.0171,0.0174,0.0173,0.0183,0.0163,0.0165,0.0165,0.0166,0.0206,0.021,0.0213,0,0,0,0,0,0.017,0.0179,0.0177,0.0178,0.0185,0.0193,0.0194,0.0191,0.0185,0.0191,0.0187,0.0177,0.0176,0.0174,0.0173,0.0183,0.0164,0.0165,0.0165,0.0205,0.0209,0.0212,0,0,0,0,0,0,0.017,0.0179,0.0177,0.0188,0.0191,0.0192,0.0197,0.0193,0.0195,0.0194,0.0184,0.0182,0.0188,0.0178,0.0177,0.0183,0.0167,0.0167,0.0197,0.0201,0.0204,0.0221,0.0163,0,0,0,0,0,0.0172,0.0183,0.0187,0.0196,0.0199,0.0197,0.0199,0.0199,0.02,0.0201,0.0196,0.0191,0.0189,0.019,0.0186,0.0192,0.0192,0.0196,0.0199,0.0202,0.0214,0.0249,0.0257,0.0167,0.0167,0.0167,0,0,0.0174,0.0181,0.0186,0.0196,0.0199,0.0214,0.0199,0.0207,0.022,0.0199,0.0214,0.0203,0.0193,0.0201,0.0202,0.0195,0.0219,0.0203,0.0205,0.0216,0.025,0.026,0.0268,0.0168,0.0168,0.0168,0,0,0.019,0.0191,0.0208,0.0215,0.0223,0.0226,0.0229,0.0234,0.0236,0.0247,0.0234,0.0234,0.023,0.0229,0.0227,0.0245,0.0235,0.0235,0.0269,0.0302,0.0311,0.0318,0.0296,0.0301,0.0238,0.0238,0.0238,0,0.0191,0.0217,0.0213,0.0233,0.0244,0.0234,0.0257,0.0259,0.0264,0.0274,0.0258,0.0266,0.0248,0.0269,0.0266,0.0255,0.0255,0.0257,0.0309,0.0316,0.0323,0.03,0.0305,0.024,0.024,0.024,0.024,0,0.0224,0.0243,0.0255,0.028,0.0288,0.0308,0.0311,0.032,0.0318,0.0322,0.034,0.0322,0.0334,0.0316,0.0293,0.0329,0.0304,0.031,0.0304,0.0336,0.0307,0.0312,0.0243,0.0243,0.0242,0.0241,0,0,0.0234,0.0272,0.0277,0.0302,0.0318,0.0334,0.0354,0.0377,0.0409,0.0398,0.0448,0.0414,0.0411,0.0407,0.0383,0.0393,0.0414,0.037,0.0371,0.0356,0.0455,0.0406,0.0405,0.044,0.0441,0.0443,0.0403,0,0.0265,0.0315,0.0324,0.0374,0.0402,0.0403,0.0433,0.0449,0.0458,0.0504,0.0487,0.0524,0.0446,0.0468,0.0461,0.0447,0.0435,0.0422,0.042,0.0419,0.038,0.0413,0.0425,0.039,0.0408,0.0408,0.0409,0,0.0297,0.0331,0.0382,0.0439,0.0453,0.048,0.0532,0.056,0.0602,0.0618,0.0637,0.0638,0.0648,0.0594,0.0564,0.0563,0.0506,0.0474,0.0473,0.0423,0.0381,0.0367,0.0398,0.0417,0.0416,0.0416,0.0415,0,0.0318,0.0374,0.0419,0.0436,0.0494,0.0521,0.0556,0.0594,0.0651,0.0709,0.0772,0.076,0.0802,0.074,0.0648,0.0625,0.0618,0.0584,0.047,0.0464,0.0471,0.0463,0.0562,0.0562,0.0562,0.0562,0.0563,0,0.0351,0.0392,0.0435,0.0467,0.0543,0.0561,0.0653,0.0681,0.0765,0.0874,0.0846,0.0927,0.085,0.0831,0.0711,0.0608,0.0666,0.0483,0.0468,0.0479,0.0472,0.0501,0.0494,0.0561,0.0561,0.0561,0.0562,0,0.037,0.0396,0.0464,0.053,0.0558,0.0615,0.0734,0.0812,0.0869,0.1019,0.1061,0.1084,0.1047,0.0927,0.0839,0.0708,0.0604,0.0543,0.0528,0.0511,0.0398,0.0394,0.0416,0.0414,0.0413,0.0412,0.0411,0,0.0387,0.042,0.0511,0.0572,0.0609,0.0701,0.0786,0.0862,0.0962,0.1119,0.1211,0.1219,0.1224,0.1037,0.0833,0.0618,0.0586,0.0474,0.0425,0.0409,0.0391,0.0389,0.0387,0.0431,0.043,0.0429,0.0429,0,0.043,0.0459,0.0522,0.0636,0.0729,0.0844,0.0968,0.1062,0.1192,0.1316,0.145,0.1461,0.1286,0.1078,0.0779,0.0629,0.0508,0.0452,0.0497,0.0461,0.0419,0.0402,0.0401,0.0423,0.0424,0.0424,0.0425,0.0425,0.047,0.0522,0.0606,0.0714,0.0828,0.0971,0.108,0.1228,0.1397,0.1568,0.1574,0.1574,0.1348,0.0941,0.0704,0.0452,0.046,0.0352,0.0357,0.0361,0.0365,0.0323,0.0307,0.0307,0.0307,0.0306,0.0306,0,0.0523,0.0585,0.0685,0.0818,0.0942,0.0996,0.1197,0.1315,0.1518,0.1627,0.1701,0.1458,0.1218,0.0947,0.0577,0.035,0.0342,0.0263,0.031,0.0317,0.0323,0.0327,0.0257,0.0256,0.0256,0.0255,0,0,0.0558,0.0648,0.0688,0.0877,0.0984,0.1154,0.1272,0.1463,0.1577,0.1657,0.1643,0.1578,0.1278,0.099,0.0693,0.0481,0.0448,0.0429,0.0493,0.0592,0.0601,0.0398,0.0414,0,0,0,0,0]}],[{"header":{"parameterUnit":"m.s-1","parameterCategory":2,"la1":30.2991,"la2":30.254,"lo1":-89.0895,"lo2":-89.0444,"dy":0.0017,"dx":0.0017,"nx":28,"ny":28,"refTime":"2025-05-27T03:00:00:Z","depth":"4","parameterNumber":2,"parameterNumberName":"U-component_of_CURRENTS"},"data":[0,0,0,0,0,0,0,0,0,0,0,0,0,0,0,0,0,0,0,0,0,0,0,0,0,0,0,0,0,0,0,0,0,0,0,0,0,0,0,0,0,0,0,0,0,0,0,0,0,0,0,0,0,0,0,0,0,0,0.1396,0.1397,0,0.142,0.142,0.142,0.1454,0.1455,0.1455,0.1456,0.1471,0.1471,0.1471,0,0,0,0,0,0,0,0,0,0,0,0,0,0.1398,0.1398,0.1396,0.1397,0.1397,0.142,0.142,0.142,0.1454,0.1455,0.1455,0.1456,0.1472,0.1471,0.1471,0,0,0,0,0,0,0,0,0,0,0,0,0,0.1405,0.1398,0.1396,0.1418,0.142,0.142,0.142,0.142,0.1453,0.1455,0.1456,0.1457,0.1472,0.1471,0.1471,0.1445,0,0,0.1469,0.1469,0,0,0,0,0,0,0,0,0.1405,0.1405,0.1414,0.1417,0.1419,0.1437,0.1427,0.1429,0.1453,0.1439,0.1456,0.1457,0.146,0.146,0.1459,0.1446,0.1446,0.1469,0.1469,0.1469,0.1469,0,0,0,0,0,0,0,0.1404,0.1404,0.1403,0.1415,0.1418,0.1433,0.1435,0.1427,0.1441,0.144,0.1443,0.1449,0.1461,0.146,0.146,0.1447,0.1469,0.1469,0.1469,0.1469,0.1514,0.1516,0,0,0,0,0,0,0.1403,0.1403,0.1403,0.1404,0.1417,0.1432,0.1434,0.1428,0.1441,0.1445,0.1448,0.145,0.146,0.146,0.1461,0.1505,0.1469,0.1468,0.1468,0.1513,0.1515,0.1516,0,0,0,0,0,0,0.1403,0.1402,0.1402,0.1407,0.1408,0.1431,0.1424,0.1428,0.1458,0.1447,0.1451,0.1477,0.1461,0.1461,0.1473,0.1503,0.1468,0.1468,0.1511,0.1513,0.1515,0.1546,0,0,0,0,0,0,0.1402,0.1401,0.1416,0.1406,0.1408,0.1417,0.1423,0.1428,0.1459,0.1463,0.1473,0.1474,0.1462,0.1474,0.1473,0.1502,0.1468,0.1509,0.1512,0.1515,0.1544,0.1549,0.1555,0,0,0,0,0,0.1402,0.1408,0.1415,0.1417,0.1419,0.1417,0.142,0.1439,0.146,0.1471,0.1479,0.1475,0.1492,0.1474,0.1472,0.1502,0.1508,0.1511,0.1515,0.1541,0.1548,0.1554,0,0,0,0,0,0,0.1417,0.1412,0.142,0.1425,0.1431,0.1424,0.1446,0.1455,0.1471,0.1488,0.1478,0.1479,0.1511,0.15,0.148,0.1528,0.1506,0.1509,0.1527,0.1534,0.1539,0.1565,0.1467,0,0,0,0,0,0.1425,0.143,0.1426,0.1435,0.1442,0.1451,0.1462,0.1472,0.1477,0.1488,0.1494,0.1507,0.1517,0.152,0.153,0.1537,0.1557,0.1562,0.1568,0.1572,0.1595,0.1649,0.1661,0.1527,0.1527,0.1527,0,0,0.1433,0.1434,0.1438,0.144,0.1451,0.1456,0.1461,0.1484,0.1493,0.1485,0.1514,0.153,0.1528,0.1547,0.1561,0.1542,0.1619,0.1577,0.158,0.1601,0.1653,0.1667,0.1678,0.153,0.1529,0.1529,0,0,0.1439,0.1455,0.1459,0.1465,0.1484,0.1487,0.15,0.1511,0.1527,0.155,0.1554,0.1588,0.1598,0.16,0.1602,0.1643,0.1655,0.1654,0.169,0.174,0.1752,0.1762,0.1792,0.1805,0.1646,0.1646,0.1646,0,0.146,0.1452,0.1462,0.1467,0.1474,0.1502,0.1506,0.1521,0.1538,0.1554,0.1573,0.1634,0.1628,0.1652,0.1669,0.1657,0.1685,0.1658,0.1748,0.1759,0.1769,0.1797,0.1811,0.1648,0.1647,0.1647,0.1647,0,0.1451,0.1463,0.147,0.1481,0.149,0.1504,0.1517,0.1546,0.1584,0.1603,0.1668,0.1683,0.1725,0.1726,0.1708,0.1774,0.1769,0.1755,0.1729,0.1784,0.181,0.1824,0.165,0.165,0.1649,0.1649,0,0,0.1454,0.1462,0.1471,0.1468,0.15,0.1496,0.153,0.1555,0.1593,0.165,0.1702,0.1743,0.1792,0.18,0.18,0.1835,0.1915,0.183,0.1831,0.1856,0.2028,0.1863,0.1862,0.1922,0.1925,0.1927,0.2012,0,0.1453,0.1446,0.146,0.1466,0.1457,0.1496,0.1518,0.1552,0.1613,0.1674,0.1731,0.1793,0.1806,0.1845,0.1892,0.1922,0.1957,0.1894,0.1975,0.1978,0.1821,0.1874,0.1936,0.2023,0.2026,0.2028,0.203,0,0.1437,0.143,0.1426,0.1435,0.1441,0.1464,0.1516,0.1547,0.1639,0.1696,0.1799,0.1851,0.1938,0.1935,0.2056,0.2022,0.2038,0.2052,0.2055,0.1905,0.1838,0.196,0.2055,0.2053,0.2051,0.2049,0.2048,0,0.1391,0.1407,0.1398,0.1402,0.1424,0.1449,0.1486,0.1565,0.1605,0.1736,0.1807,0.1921,0.2014,0.2071,0.2121,0.2106,0.223,0.2204,0.2069,0.2057,0.2167,0.2155,0.2278,0.2278,0.2278,0.2278,0.2277,0,0.1352,0.1353,0.1385,0.1375,0.1386,0.1426,0.1482,0.1541,0.1649,0.1705,0.1838,0.1915,0.2062,0.2139,0.2154,0.2161,0.2269,0.2094,0.2075,0.2175,0.2163,0.2175,0.2162,0.2281,0.228,0.2279,0.2279,0,0.1285,0.1313,0.1303,0.1338,0.1359,0.1373,0.1467,0.1507,0.164,0.1728,0.1776,0.1957,0.2075,0.216,0.2259,0.2202,0.2204,0.2163,0.2267,0.2249,0.1991,0.1979,0.2043,0.2038,0.2034,0.2031,0.2028,0,0.1242,0.1231,0.1266,0.1277,0.1303,0.1349,0.1378,0.1489,0.1537,0.1725,0.1749,0.1924,0.202,0.2063,0.2151,0.2172,0.2134,0.2114,0.2055,0.1996,0.1972,0.1966,0.196,0.2021,0.202,0.2019,0.2018,0,0.1156,0.119,0.1185,0.1205,0.1236,0.1252,0.1315,0.1337,0.1465,0.1596,0.1696,0.1763,0.1893,0.1987,0.2016,0.2014,0.212,0.207,0.2079,0.2023,0.197,0.1948,0.1947,0.2003,0.2005,0.2007,0.2007,0,0.1112,0.1097,0.1113,0.1117,0.1154,0.1148,0.1188,0.1245,0.1304,0.1501,0.1529,0.1715,0.1878,0.1903,0.1917,0.1919,0.1894,0.1814,0.1836,0.1853,0.1746,0.1648,0.158,0,0,0,0,0,0.1064,0.1039,0.1026,0.1015,0.1048,0.1063,0.1135,0.1185,0.1307,0.133,0.1426,0.1524,0.1612,0.1715,0.1682,0.1815,0.1884,0.1763,0.1798,0.1922,0.1939,0.1827,0,0,0,0,0,0,0.1032,0.1026,0.0987,0.0929,0.0914,0.0925,0.0967,0.1045,0.1074,0.1226,0.1303,0.1408,0.1537,0.1625,0.1653,0.1672,0.1653,0.1863,0.1858,0.1912,0.1928,0.1941,0.1832,0,0,0,0,0]},{"header":{"parameterUnit":"m.s-1","parameterCategory":2,"la1":30.2991,"la2":30.254,"lo1":-89.0895,"lo2":-89.0444,"dy":0.0017,"dx":0.0017,"nx":28,"ny":28,"refTime":"2025-05-27T03:00:00:Z","depth":"4","parameterNumber":3,"parameterNumberName":"V-component_of_CURRENTS"},"data":[0,0,0,0,0,0,0,0,0,0,0,0,0,0,0,0,0,0,0,0,0,0,0,0,0,0,0,0,0,0,0,0,0,0,0,0,0,0,0,0,0,0,0,0,0,0,0,0,0,0,0,0,0,0,0,0,0,0,0.0137,0.0137,0,0.0145,0.0145,0.0145,0.0146,0.0146,0.0146,0.0146,0.0149,0.015,0.015,0,0,0,0,0,0,0,0,0,0,0,0,0,0.0112,0.0113,0.0137,0.0137,0.0137,0.0145,0.0145,0.0145,0.0146,0.0146,0.0146,0.0146,0.0149,0.015,0.015,0,0,0,0,0,0,0,0,0,0,0,0,0,0.0123,0.0113,0.0137,0.0138,0.0138,0.0145,0.0145,0.0145,0.0146,0.0146,0.0146,0.0146,0.0149,0.015,0.015,0.0156,0,0,0.0151,0.0151,0,0,0,0,0,0,0,0,0.0122,0.0124,0.0138,0.0138,0.0138,0.0144,0.0138,0.0148,0.0146,0.0144,0.0146,0.0146,0.0147,0.0147,0.015,0.0156,0.0156,0.0151,0.0151,0.0151,0.0151,0,0,0,0,0,0,0,0.0121,0.0123,0.0141,0.0138,0.0138,0.0134,0.0136,0.014,0.0147,0.0144,0.0144,0.0144,0.0147,0.015,0.015,0.0156,0.0151,0.0151,0.0152,0.0152,0.0169,0.0169,0,0,0,0,0,0,0.012,0.0123,0.0141,0.0141,0.0129,0.0135,0.0137,0.0143,0.0147,0.0147,0.0144,0.0144,0.015,0.015,0.0151,0.0177,0.0151,0.0152,0.0152,0.0169,0.0169,0.0169,0,0,0,0,0,0,0.012,0.0122,0.014,0.0131,0.0133,0.0136,0.0143,0.0143,0.0148,0.0147,0.0147,0.0149,0.0149,0.015,0.016,0.0176,0.0152,0.0152,0.0168,0.0169,0.0169,0.0217,0,0,0,0,0,0,0.0119,0.0122,0.0126,0.0131,0.0133,0.0148,0.0143,0.0143,0.0148,0.0148,0.0151,0.0151,0.0149,0.016,0.0161,0.0176,0.0152,0.0168,0.0168,0.0169,0.0215,0.0219,0.0222,0,0,0,0,0,0.0118,0.0127,0.0127,0.0128,0.014,0.0148,0.015,0.0151,0.0148,0.0154,0.0157,0.0151,0.0163,0.0161,0.0161,0.0177,0.0168,0.0168,0.0169,0.0213,0.0218,0.0222,0,0,0,0,0,0,0.0118,0.0128,0.0128,0.0139,0.0144,0.0148,0.0154,0.0153,0.0161,0.0162,0.0159,0.0159,0.0173,0.0165,0.0163,0.0181,0.0163,0.0163,0.0196,0.02,0.0204,0.0206,0.0153,0,0,0,0,0,0.0119,0.013,0.0136,0.0145,0.0148,0.0151,0.0155,0.0157,0.0162,0.0165,0.0167,0.0169,0.0175,0.018,0.0181,0.0195,0.0169,0.0203,0.0206,0.021,0.021,0.018,0.0181,0.0171,0.0171,0.0171,0,0,0.0121,0.0128,0.0134,0.0145,0.015,0.0166,0.0154,0.0163,0.0181,0.0165,0.0188,0.0182,0.018,0.0197,0.0202,0.0194,0.0198,0.021,0.0213,0.0212,0.0181,0.0182,0.0183,0.0171,0.0171,0.0171,0,0,0.0133,0.0138,0.0151,0.0161,0.017,0.0176,0.018,0.0187,0.0195,0.0213,0.0206,0.0207,0.0219,0.0221,0.0224,0.0246,0.0216,0.0246,0.0271,0.0242,0.0243,0.0243,0.0209,0.0206,0.025,0.025,0.025,0,0.0134,0.0157,0.0156,0.0174,0.019,0.0183,0.0208,0.0215,0.0226,0.0236,0.0225,0.0236,0.0232,0.0253,0.026,0.0256,0.023,0.0259,0.0247,0.0247,0.0246,0.0212,0.0207,0.0252,0.0252,0.0252,0.0252,0,0.0158,0.018,0.019,0.0216,0.023,0.025,0.0262,0.0276,0.0281,0.0283,0.0298,0.0287,0.0292,0.029,0.0285,0.0286,0.0265,0.0254,0.0238,0.025,0.0213,0.0208,0.0256,0.0255,0.0254,0.0254,0,0,0.0161,0.0201,0.0206,0.0236,0.0259,0.0279,0.0308,0.0335,0.0356,0.0351,0.0371,0.0373,0.0352,0.0353,0.0339,0.0315,0.0287,0.0286,0.0283,0.0255,0.0217,0.0218,0.0212,0.0273,0.0272,0.0271,0.0192,0,0.0185,0.0234,0.0247,0.0304,0.0335,0.0348,0.0381,0.0402,0.0405,0.0417,0.0399,0.0407,0.0382,0.0383,0.0354,0.0307,0.0276,0.0309,0.0206,0.0203,0.0205,0.0207,0.027,0.0188,0.0187,0.0186,0.0185,0,0.0208,0.0245,0.03,0.0367,0.0383,0.0414,0.0468,0.0497,0.0503,0.0502,0.049,0.0465,0.0443,0.0409,0.0329,0.0351,0.0287,0.024,0.0235,0.0216,0.0195,0.0172,0.0175,0.0176,0.0177,0.0177,0.0178,0,0.0222,0.0286,0.0338,0.036,0.0424,0.0461,0.0499,0.0522,0.0556,0.055,0.0553,0.0512,0.0501,0.0415,0.0319,0.0322,0.0211,0.0204,0.0142,0.014,0.0142,0.0142,0.0133,0.0133,0.0134,0.0134,0.0134,0,0.0248,0.0293,0.0354,0.0387,0.0464,0.0497,0.0568,0.0587,0.0614,0.0645,0.06,0.0599,0.0501,0.0426,0.0326,0.0219,0.0214,0.0144,0.0122,0.0163,0.0167,0.0137,0.0139,0.0131,0.0131,0.0132,0.0133,0,0.0254,0.029,0.0361,0.0442,0.0473,0.053,0.0626,0.0668,0.0684,0.0716,0.0716,0.0669,0.0581,0.0463,0.0324,0.0245,0.0128,0.0085,0.0132,0.0114,0.0074,0.0078,0.0019,0.0018,0.0018,0.0017,0.0017,0,0.0263,0.0297,0.0398,0.0448,0.049,0.0581,0.0641,0.0696,0.0735,0.0755,0.0763,0.0701,0.0649,0.0458,0.033,0.014,0.0113,0.0043,0.0065,0.0078,0.0062,0.0068,0.0074,0.0016,0.0016,0.0016,0.0016,0,0.0284,0.0316,0.0375,0.047,0.0546,0.0639,0.0724,0.076,0.0812,0.0822,0.0802,0.0711,0.0616,0.0471,0.0323,0.0184,0.0086,0.0038,0.0038,0.0058,0.0074,0.006,0.0066,0.0014,0.0014,0.0015,0.0015,0,0.0299,0.0336,0.0406,0.0496,0.0584,0.0668,0.0724,0.0779,0.0825,0.084,0.0829,0.0725,0.0674,0.0492,0.035,0.0222,0.0196,0.0144,0.0138,0.0139,0.0199,0.0238,0.021,0,0,0,0,0,0.0316,0.0355,0.043,0.0526,0.0611,0.0668,0.0762,0.0808,0.0852,0.0842,0.0842,0.0748,0.0572,0.0501,0.0376,0.0336,0.0165,0.0183,0.01,0.0005,0.0007,0.0058,0,0,0,0,0,0,0.0325,0.0387,0.0422,0.0529,0.0599,0.0695,0.076,0.0797,0.0802,0.0821,0.0736,0.0701,0.0535,0.0639,0.0366,0.033,0.0256,0.0107,0.0104,0.0004,0.0006,0.0007,0.006,0,0,0,0,0]}]]